Wetterdaten: Donnerstag, 30.07.2015
Datum Zeit Temp. A. Feuchte A. Luftdruck Regen Wind Richtung Richtung Sonnenschein ET UV Solar Taupunkt Windchill Windben Empfang
30.07.2015 00:03 14,2 C 93 % 1013,9 hPa 0,0 l/m 1,8 km/h (1 Bft) W-SW 256 0 min 0,000 mm 0,0 UV-I 0 W/m 13,1 C 14,2 C 4,0 km/h (1 Bft) 0,00 %
30.07.2015 00:08 14,2 C 93 % 1014,1 hPa 0,0 l/m 0,0 km/h (0 Bft) O 97 0 min 0,000 mm 0,0 UV-I 0 W/m 13,1 C 14,2 C 0,0 km/h (0 Bft) 0,00 %
30.07.2015 00:13 14,2 C 93 % 1014,1 hPa 0,0 l/m 1,4 km/h (1 Bft) W-NW 282 0 min 0,000 mm 0,0 UV-I 0 W/m 13,1 C 14,2 C 4,0 km/h (1 Bft) 0,00 %
30.07.2015 00:18 14,2 C 94 % 1014,0 hPa 0,0 l/m 0,0 km/h (0 Bft) N-NO 19 0 min 0,000 mm 0,0 UV-I 0 W/m 13,2 C 14,2 C 0,0 km/h (0 Bft) 0,00 %
30.07.2015 00:23 14,2 C 94 % 1014,2 hPa 0,0 l/m 0,0 km/h (0 Bft) NO 42 0 min 0,000 mm 0,0 UV-I 0 W/m 13,2 C 14,2 C 0,0 km/h (0 Bft) 0,00 %
30.07.2015 00:28 14,2 C 94 % 1014,3 hPa 0,0 l/m 0,0 km/h (0 Bft) NO 37 0 min 0,000 mm 0,0 UV-I 0 W/m 13,2 C 14,2 C 0,0 km/h (0 Bft) 0,00 %
30.07.2015 00:33 14,2 C 95 % 1014,3 hPa 0,0 l/m 0,0 km/h (0 Bft) N-NO 25 0 min 0,000 mm 0,0 UV-I 0 W/m 13,4 C 14,2 C 0,0 km/h (0 Bft) 0,00 %
30.07.2015 00:38 14,2 C 95 % 1014,2 hPa 0,0 l/m 0,0 km/h (0 Bft) N-NO 28 0 min 0,000 mm 0,0 UV-I 0 W/m 13,4 C 14,2 C 0,0 km/h (0 Bft) 0,00 %
30.07.2015 00:43 14,2 C 95 % 1014,4 hPa 0,0 l/m 0,0 km/h (0 Bft) N 355 0 min 0,000 mm 0,0 UV-I 0 W/m 13,4 C 14,2 C 0,0 km/h (0 Bft) 0,00 %
30.07.2015 00:48 14,2 C 95 % 1014,3 hPa 0,0 l/m 0,0 km/h (0 Bft) N 352 0 min 0,000 mm 0,0 UV-I 0 W/m 13,4 C 14,2 C 0,0 km/h (0 Bft) 0,00 %
30.07.2015 00:53 14,2 C 95 % 1014,4 hPa 0,0 l/m 0,0 km/h (0 Bft) N 349 0 min 0,000 mm 0,0 UV-I 0 W/m 13,4 C 14,2 C 0,0 km/h (0 Bft) 0,00 %
30.07.2015 00:58 14,2 C 95 % 1014,3 hPa 0,0 l/m 0,0 km/h (0 Bft) N 356 0 min 0,000 mm 0,0 UV-I 0 W/m 13,4 C 14,2 C 0,0 km/h (0 Bft) 0,00 %
30.07.2015 01:03 14,2 C 96 % 1014,5 hPa 0,0 l/m 0,0 km/h (0 Bft) N-NO 26 0 min 0,000 mm 0,0 UV-I 0 W/m 13,6 C 14,2 C 0,0 km/h (0 Bft) 0,00 %
30.07.2015 01:08 14,2 C 96 % 1014,3 hPa 0,0 l/m 0,4 km/h (0 Bft) N-NW 347 0 min 0,000 mm 0,0 UV-I 0 W/m 13,6 C 14,2 C 4,0 km/h (1 Bft) 0,00 %
30.07.2015 01:13 14,2 C 96 % 1014,4 hPa 0,0 l/m 1,4 km/h (1 Bft) O 95 0 min 0,000 mm 0,0 UV-I 0 W/m 13,6 C 14,2 C 4,0 km/h (1 Bft) 0,00 %
30.07.2015 01:18 14,2 C 96 % 1014,3 hPa 0,0 l/m 0,0 km/h (0 Bft) N 8 0 min 0,000 mm 0,0 UV-I 0 W/m 13,6 C 14,2 C 0,0 km/h (0 Bft) 0,00 %
30.07.2015 01:23 14,2 C 96 % 1014,4 hPa 0,0 l/m 0,0 km/h (0 Bft) NO 46 0 min 0,000 mm 0,0 UV-I 0 W/m 13,6 C 14,2 C 0,0 km/h (0 Bft) 0,00 %
30.07.2015 01:28 14,1 C 95 % 1014,5 hPa 0,0 l/m 0,0 km/h (0 Bft) NW 314 0 min 0,000 mm 0,0 UV-I 0 W/m 13,3 C 14,1 C 0,0 km/h (0 Bft) 0,00 %
30.07.2015 01:33 14,1 C 95 % 1014,6 hPa 0,0 l/m 0,4 km/h (0 Bft) N 351 0 min 0,000 mm 0,0 UV-I 0 W/m 13,3 C 14,1 C 4,0 km/h (1 Bft) 0,00 %
30.07.2015 01:38 14,0 C 94 % 1014,7 hPa 0,0 l/m 3,2 km/h (1 Bft) W-NW 284 0 min 0,000 mm 0,0 UV-I 0 W/m 13,0 C 14,0 C 7,9 km/h (2 Bft) 0,00 %
30.07.2015 01:43 13,9 C 94 % 1014,8 hPa 0,0 l/m 1,4 km/h (1 Bft) N 355 0 min 0,000 mm 0,0 UV-I 0 W/m 12,9 C 13,9 C 4,0 km/h (1 Bft) 0,00 %
30.07.2015 01:48 13,8 C 93 % 1014,9 hPa 0,0 l/m 0,7 km/h (0 Bft) NW 313 0 min 0,000 mm 0,0 UV-I 0 W/m 12,7 C 13,8 C 4,0 km/h (1 Bft) 0,00 %
30.07.2015 01:53 13,8 C 93 % 1014,9 hPa 0,0 l/m 0,7 km/h (0 Bft) N 354 0 min 0,000 mm 0,0 UV-I 0 W/m 12,7 C 13,8 C 4,0 km/h (1 Bft) 0,00 %
30.07.2015 01:58 13,7 C 93 % 1014,9 hPa 0,0 l/m 0,4 km/h (0 Bft) N 350 0 min 0,000 mm 0,0 UV-I 0 W/m 12,6 C 13,7 C 4,0 km/h (1 Bft) 0,00 %
30.07.2015 02:03 13,7 C 92 % 1014,8 hPa 0,0 l/m 0,0 km/h (0 Bft) W-SW 256 0 min 0,000 mm 0,0 UV-I 0 W/m 12,4 C 13,7 C 0,0 km/h (0 Bft) 0,00 %
30.07.2015 02:08 13,6 C 92 % 1014,9 hPa 0,0 l/m 0,4 km/h (0 Bft) N 353 0 min 0,000 mm 0,0 UV-I 0 W/m 12,3 C 13,6 C 4,0 km/h (1 Bft) 0,00 %
30.07.2015 02:13 13,6 C 92 % 1014,9 hPa 0,0 l/m 0,0 km/h (0 Bft) N-NW 346 0 min 0,000 mm 0,0 UV-I 0 W/m 12,3 C 13,6 C 0,0 km/h (0 Bft) 0,00 %
30.07.2015 02:18 13,5 C 92 % 1015,1 hPa 0,0 l/m 0,0 km/h (0 Bft) N 355 0 min 0,000 mm 0,0 UV-I 0 W/m 12,2 C 13,5 C 0,0 km/h (0 Bft) 0,00 %
30.07.2015 02:23 13,4 C 91 % 1014,9 hPa 0,0 l/m 2,2 km/h (1 Bft) W-NW 294 0 min 0,000 mm 0,0 UV-I 0 W/m 12,0 C 13,4 C 4,0 km/h (1 Bft) 0,00 %
30.07.2015 02:28 13,4 C 91 % 1014,8 hPa 0,0 l/m 0,7 km/h (0 Bft) N 353 0 min 0,000 mm 0,0 UV-I 0 W/m 12,0 C 13,4 C 4,0 km/h (1 Bft) 0,00 %
30.07.2015 02:33 13,3 C 92 % 1015,1 hPa 0,0 l/m 3,2 km/h (1 Bft) W-NW 288 0 min 0,000 mm 0,0 UV-I 0 W/m 12,0 C 13,3 C 4,0 km/h (1 Bft) 0,00 %
30.07.2015 02:38 13,2 C 92 % 1015,0 hPa 0,0 l/m 0,4 km/h (0 Bft) W 269 0 min 0,000 mm 0,0 UV-I 0 W/m 11,9 C 13,2 C 4,0 km/h (1 Bft) 0,00 %
30.07.2015 02:43 13,1 C 92 % 1014,9 hPa 0,0 l/m 0,0 km/h (0 Bft) N-NO 18 0 min 0,000 mm 0,0 UV-I 0 W/m 11,8 C 13,1 C 0,0 km/h (0 Bft) 0,00 %
30.07.2015 02:48 13,1 C 92 % 1014,9 hPa 0,0 l/m 4,7 km/h (1 Bft) W 274 0 min 0,000 mm 0,0 UV-I 0 W/m 11,8 C 13,1 C 7,9 km/h (2 Bft) 0,00 %
30.07.2015 02:53 13,1 C 93 % 1015,1 hPa 0,0 l/m 0,0 km/h (0 Bft) N 356 0 min 0,000 mm 0,0 UV-I 0 W/m 12,0 C 13,1 C 0,0 km/h (0 Bft) 0,00 %
30.07.2015 02:58 13,1 C 93 % 1015,2 hPa 0,0 l/m 2,2 km/h (1 Bft) NW 309 0 min 0,000 mm 0,0 UV-I 0 W/m 12,0 C 13,1 C 4,0 km/h (1 Bft) 0,00 %
30.07.2015 03:03 13,1 C 93 % 1015,3 hPa 0,0 l/m 4,7 km/h (1 Bft) W-SW 256 0 min 0,000 mm 0,0 UV-I 0 W/m 12,0 C 13,1 C 7,9 km/h (2 Bft) 0,00 %
30.07.2015 03:08 13,1 C 93 % 1015,1 hPa 0,0 l/m 5,8 km/h (2 Bft) W-SW 256 0 min 0,000 mm 0,0 UV-I 0 W/m 12,0 C 13,1 C 7,9 km/h (2 Bft) 0,00 %
30.07.2015 03:13 13,0 C 93 % 1015,2 hPa 0,0 l/m 4,3 km/h (1 Bft) NW 313 0 min 0,000 mm 0,0 UV-I 0 W/m 11,9 C 13,0 C 7,9 km/h (2 Bft) 0,00 %
30.07.2015 03:18 13,0 C 94 % 1015,2 hPa 0,0 l/m 4,3 km/h (1 Bft) W-SW 245 0 min 0,000 mm 0,0 UV-I 0 W/m 12,1 C 13,0 C 7,9 km/h (2 Bft) 0,00 %
30.07.2015 03:23 12,9 C 95 % 1015,2 hPa 0,0 l/m 0,0 km/h (0 Bft) N-NO 27 0 min 0,000 mm 0,0 UV-I 0 W/m 12,1 C 12,9 C 0,0 km/h (0 Bft) 0,00 %
30.07.2015 03:28 12,9 C 95 % 1015,2 hPa 0,0 l/m 2,2 km/h (1 Bft) W-NW 293 0 min 0,000 mm 0,0 UV-I 0 W/m 12,1 C 12,9 C 4,0 km/h (1 Bft) 0,00 %
30.07.2015 03:33 12,8 C 95 % 1015,2 hPa 0,0 l/m 3,2 km/h (1 Bft) W-SW 256 0 min 0,000 mm 0,0 UV-I 0 W/m 12,0 C 12,8 C 4,0 km/h (1 Bft) 0,00 %
30.07.2015 03:38 12,8 C 95 % 1015,3 hPa 0,0 l/m 4,0 km/h (1 Bft) W-SW 256 0 min 0,000 mm 0,0 UV-I 0 W/m 12,0 C 12,8 C 7,9 km/h (2 Bft) 0,00 %
30.07.2015 03:43 12,8 C 95 % 1015,3 hPa 0,0 l/m 3,2 km/h (1 Bft) W-SW 251 0 min 0,000 mm 0,0 UV-I 0 W/m 12,0 C 12,8 C 7,9 km/h (2 Bft) 0,00 %
30.07.2015 03:48 12,8 C 95 % 1015,3 hPa 0,0 l/m 2,9 km/h (1 Bft) W-SW 256 0 min 0,000 mm 0,0 UV-I 0 W/m 12,0 C 12,8 C 4,0 km/h (1 Bft) 0,00 %
30.07.2015 03:53 12,7 C 95 % 1015,4 hPa 0,0 l/m 0,0 km/h (0 Bft) N 349 0 min 0,000 mm 0,0 UV-I 0 W/m 11,9 C 12,7 C 0,0 km/h (0 Bft) 0,00 %
30.07.2015 03:58 12,7 C 95 % 1015,4 hPa 0,0 l/m 0,0 km/h (0 Bft) N-NW 344 0 min 0,000 mm 0,0 UV-I 0 W/m 11,9 C 12,7 C 0,0 km/h (0 Bft) 0,00 %
30.07.2015 04:03 12,6 C 95 % 1015,1 hPa 0,0 l/m 0,0 km/h (0 Bft) N 351 0 min 0,000 mm 0,0 UV-I 0 W/m 11,8 C 12,6 C 0,0 km/h (0 Bft) 0,00 %
30.07.2015 04:08 12,6 C 95 % 1015,3 hPa 0,0 l/m 0,0 km/h (0 Bft) N-NO 31 0 min 0,000 mm 0,0 UV-I 0 W/m 11,8 C 12,6 C 0,0 km/h (0 Bft) 0,00 %
30.07.2015 04:13 12,6 C 95 % 1015,2 hPa 0,0 l/m 1,4 km/h (1 Bft) N-NW 343 0 min 0,000 mm 0,0 UV-I 0 W/m 11,8 C 12,6 C 4,0 km/h (1 Bft) 0,00 %
30.07.2015 04:18 12,6 C 94 % 1015,2 hPa 0,0 l/m 0,0 km/h (0 Bft) NO 37 0 min 0,000 mm 0,0 UV-I 0 W/m 11,7 C 12,6 C 0,0 km/h (0 Bft) 0,00 %
30.07.2015 04:23 12,6 C 94 % 1015,2 hPa 0,0 l/m 0,4 km/h (0 Bft) NO 38 0 min 0,000 mm 0,0 UV-I 0 W/m 11,7 C 12,6 C 4,0 km/h (1 Bft) 0,00 %
30.07.2015 04:28 12,6 C 94 % 1015,2 hPa 0,0 l/m 0,0 km/h (0 Bft) N-NW 347 0 min 0,000 mm 0,0 UV-I 0 W/m 11,7 C 12,6 C 0,0 km/h (0 Bft) 0,00 %
30.07.2015 04:33 12,5 C 94 % 1015,4 hPa 0,0 l/m 0,0 km/h (0 Bft) W-NW 289 0 min 0,000 mm 0,0 UV-I 0 W/m 11,6 C 12,5 C 0,0 km/h (0 Bft) 0,00 %
30.07.2015 04:38 12,5 C 93 % 1015,3 hPa 0,0 l/m 0,0 km/h (0 Bft) N-NW 340 0 min 0,000 mm 0,0 UV-I 0 W/m 11,4 C 12,5 C 0,0 km/h (0 Bft) 0,00 %
30.07.2015 04:43 12,4 C 93 % 1015,3 hPa 0,0 l/m 0,0 km/h (0 Bft) NO 37 0 min 0,000 mm 0,0 UV-I 0 W/m 11,3 C 12,4 C 0,0 km/h (0 Bft) 0,00 %
30.07.2015 04:48 12,4 C 94 % 1015,2 hPa 0,0 l/m 0,0 km/h (0 Bft) NO 48 0 min 0,000 mm 0,0 UV-I 0 W/m 11,5 C 12,4 C 0,0 km/h (0 Bft) 0,00 %
30.07.2015 04:53 12,3 C 94 % 1015,1 hPa 0,0 l/m 0,0 km/h (0 Bft) NO 40 0 min 0,000 mm 0,0 UV-I 0 W/m 11,4 C 12,3 C 0,0 km/h (0 Bft) 0,00 %
30.07.2015 04:58 12,3 C 94 % 1015,2 hPa 0,0 l/m 0,0 km/h (0 Bft) NO 38 0 min 0,000 mm 0,0 UV-I 0 W/m 11,4 C 12,3 C 0,0 km/h (0 Bft) 0,00 %
30.07.2015 05:03 12,2 C 94 % 1015,1 hPa 0,0 l/m 0,0 km/h (0 Bft) N 357 0 min 0,000 mm 0,0 UV-I 0 W/m 11,3 C 12,2 C 0,0 km/h (0 Bft) 0,00 %
30.07.2015 05:08 12,2 C 94 % 1015,2 hPa 0,0 l/m 0,0 km/h (0 Bft) NO 44 0 min 0,000 mm 0,0 UV-I 0 W/m 11,3 C 12,2 C 0,0 km/h (0 Bft) 0,00 %
30.07.2015 05:13 12,1 C 94 % 1015,1 hPa 0,0 l/m 0,0 km/h (0 Bft) NO 49 0 min 0,000 mm 0,0 UV-I 0 W/m 11,2 C 12,1 C 0,0 km/h (0 Bft) 0,00 %
30.07.2015 05:18 12,0 C 95 % 1015,2 hPa 0,0 l/m 0,0 km/h (0 Bft) NO 39 0 min 0,000 mm 0,0 UV-I 0 W/m 11,2 C 12,0 C 0,0 km/h (0 Bft) 0,00 %
30.07.2015 05:23 12,0 C 96 % 1015,0 hPa 0,0 l/m 0,0 km/h (0 Bft) NO 40 0 min 0,000 mm 0,0 UV-I 0 W/m 11,4 C 12,0 C 0,0 km/h (0 Bft) 0,00 %
30.07.2015 05:28 11,9 C 96 % 1015,1 hPa 0,0 l/m 0,0 km/h (0 Bft) NO 34 0 min 0,000 mm 0,0 UV-I 0 W/m 11,3 C 11,9 C 0,0 km/h (0 Bft) 0,00 %
30.07.2015 05:33 11,9 C 96 % 1015,2 hPa 0,0 l/m 0,0 km/h (0 Bft) NO 36 0 min 0,000 mm 0,0 UV-I 0 W/m 11,3 C 11,9 C 0,0 km/h (0 Bft) 0,00 %
30.07.2015 05:38 11,9 C 97 % 1015,2 hPa 0,0 l/m 0,0 km/h (0 Bft) S-SO 151 0 min 0,000 mm 0,0 UV-I 0 W/m 11,4 C 11,9 C 0,0 km/h (0 Bft) 0,00 %
30.07.2015 05:43 11,8 C 97 % 1015,2 hPa 0,0 l/m 0,0 km/h (0 Bft) NO 46 0 min 0,000 mm 0,0 UV-I 1 W/m 11,3 C 11,8 C 0,0 km/h (0 Bft) 0,00 %
30.07.2015 05:48 11,8 C 97 % 1015,2 hPa 0,0 l/m 0,0 km/h (0 Bft) W-NW 292 0 min 0,000 mm 0,0 UV-I 6 W/m 11,3 C 11,8 C 0,0 km/h (0 Bft) 0,00 %
30.07.2015 05:53 11,9 C 96 % 1015,2 hPa 0,0 l/m 0,0 km/h (0 Bft) NO 40 0 min 0,000 mm 0,0 UV-I 8 W/m 11,3 C 11,9 C 0,0 km/h (0 Bft) 0,00 %
30.07.2015 05:58 11,9 C 96 % 1015,2 hPa 0,0 l/m 0,0 km/h (0 Bft) N 354 0 min 0,000 mm 0,0 UV-I 17 W/m 11,3 C 11,9 C 0,0 km/h (0 Bft) 0,00 %
30.07.2015 06:03 12,0 C 96 % 1015,2 hPa 0,0 l/m 0,0 km/h (0 Bft) N-NW 335 0 min 0,000 mm 0,0 UV-I 25 W/m 11,4 C 12,0 C 0,0 km/h (0 Bft) 0,00 %
30.07.2015 06:08 11,9 C 96 % 1015,6 hPa 0,0 l/m 0,0 km/h (0 Bft) NO 37 0 min 0,000 mm 0,0 UV-I 32 W/m 11,3 C 11,9 C 0,0 km/h (0 Bft) 0,00 %
30.07.2015 06:13 11,9 C 97 % 1015,6 hPa 0,0 l/m 0,0 km/h (0 Bft) NO 53 0 min 0,000 mm 0,0 UV-I 32 W/m 11,4 C 11,9 C 0,0 km/h (0 Bft) 0,00 %
30.07.2015 06:19 12,0 C 97 % 1015,6 hPa 0,0 l/m 0,0 km/h (0 Bft) NO 48 0 min 0,000 mm 0,0 UV-I 31 W/m 11,5 C 12,0 C 0,0 km/h (0 Bft) 0,00 %
30.07.2015 06:24 12,0 C 97 % 1015,6 hPa 0,0 l/m 0,0 km/h (0 Bft) N 4 0 min 0,000 mm 0,0 UV-I 26 W/m 11,5 C 12,0 C 0,0 km/h (0 Bft) 0,00 %
30.07.2015 06:29 12,0 C 96 % 1015,6 hPa 0,0 l/m 0,0 km/h (0 Bft) N-NW 347 0 min 0,000 mm 0,0 UV-I 36 W/m 11,4 C 12,0 C 0,0 km/h (0 Bft) 0,00 %
30.07.2015 06:34 12,1 C 96 % 1015,6 hPa 0,0 l/m 0,0 km/h (0 Bft) N-NO 26 0 min 0,000 mm 0,0 UV-I 45 W/m 11,5 C 12,1 C 0,0 km/h (0 Bft) 0,00 %
30.07.2015 06:39 12,2 C 96 % 1015,6 hPa 0,0 l/m 0,0 km/h (0 Bft) N-NW 348 0 min 0,000 mm 0,0 UV-I 48 W/m 11,6 C 12,2 C 0,0 km/h (0 Bft) 0,00 %
30.07.2015 06:44 12,3 C 96 % 1015,7 hPa 0,0 l/m 0,0 km/h (0 Bft) NO 51 0 min 0,000 mm 0,0 UV-I 50 W/m 11,7 C 12,3 C 0,0 km/h (0 Bft) 0,00 %
30.07.2015 06:49 12,4 C 96 % 1015,7 hPa 0,0 l/m 0,0 km/h (0 Bft) NO 39 0 min 0,000 mm 0,0 UV-I 58 W/m 11,8 C 12,4 C 0,0 km/h (0 Bft) 0,00 %
30.07.2015 06:54 12,4 C 95 % 1015,8 hPa 0,0 l/m 0,0 km/h (0 Bft) NO 47 0 min 0,000 mm 0,0 UV-I 66 W/m 11,6 C 12,4 C 0,0 km/h (0 Bft) 0,00 %
30.07.2015 06:59 12,5 C 95 % 1015,7 hPa 0,0 l/m 0,0 km/h (0 Bft) NO 41 0 min 0,000 mm 0,0 UV-I 62 W/m 11,7 C 12,5 C 0,0 km/h (0 Bft) 0,00 %
30.07.2015 07:04 12,6 C 94 % 1015,7 hPa 0,0 l/m 0,0 km/h (0 Bft) NO 39 0 min 0,000 mm 0,0 UV-I 64 W/m 11,7 C 12,6 C 0,0 km/h (0 Bft) 0,00 %
30.07.2015 07:09 12,6 C 94 % 1015,6 hPa 0,0 l/m 0,0 km/h (0 Bft) NO 42 0 min 0,000 mm 0,0 UV-I 58 W/m 11,7 C 12,6 C 0,0 km/h (0 Bft) 0,00 %
30.07.2015 07:14 12,7 C 94 % 1015,6 hPa 0,0 l/m 0,0 km/h (0 Bft) N-NW 341 0 min 0,000 mm 0,0 UV-I 56 W/m 11,8 C 12,7 C 0,0 km/h (0 Bft) 0,00 %
30.07.2015 07:19 12,6 C 94 % 1015,7 hPa 0,0 l/m 0,0 km/h (0 Bft) NO 41 0 min 0,000 mm 1,0 UV-I 60 W/m 11,7 C 12,6 C 0,0 km/h (0 Bft) 0,00 %
30.07.2015 07:24 12,6 C 93 % 1015,5 hPa 0,0 l/m 0,0 km/h (0 Bft) N 356 0 min 0,000 mm 1,0 UV-I 70 W/m 11,5 C 12,6 C 0,0 km/h (0 Bft) 0,00 %
30.07.2015 07:29 12,6 C 93 % 1015,7 hPa 0,0 l/m 0,0 km/h (0 Bft) N-NO 23 0 min 0,000 mm 1,0 UV-I 93 W/m 11,5 C 12,6 C 0,0 km/h (0 Bft) 0,00 %
30.07.2015 07:34 12,6 C 93 % 1015,6 hPa 0,0 l/m 0,0 km/h (0 Bft) N-NW 336 5 min 0,000 mm 1,0 UV-I 211 W/m 11,5 C 12,6 C 0,0 km/h (0 Bft) 0,00 %
30.07.2015 07:39 12,9 C 93 % 1015,6 hPa 0,0 l/m 0,0 km/h (0 Bft) N-NO 29 5 min 0,000 mm 1,0 UV-I 276 W/m 11,8 C 12,9 C 0,0 km/h (0 Bft) 0,00 %
30.07.2015 07:44 13,7 C 91 % 1015,4 hPa 0,0 l/m 0,0 km/h (0 Bft) NO 39 5 min 0,000 mm 1,0 UV-I 393 W/m 12,3 C 13,7 C 0,0 km/h (0 Bft) 0,00 %
30.07.2015 07:49 14,7 C 84 % 1015,5 hPa 0,0 l/m 0,0 km/h (0 Bft) NO 40 5 min 0,000 mm 1,0 UV-I 277 W/m 12,0 C 14,7 C 0,0 km/h (0 Bft) 0,00 %
30.07.2015 07:54 15,7 C 78 % 1015,6 hPa 0,0 l/m 0,0 km/h (0 Bft) N-NO 29 5 min 0,000 mm 1,0 UV-I 250 W/m 11,9 C 15,7 C 0,0 km/h (0 Bft) 0,00 %
30.07.2015 07:59 16,1 C 74 % 1015,6 hPa 0,0 l/m 0,0 km/h (0 Bft) N 354 5 min 0,000 mm 1,0 UV-I 222 W/m 11,5 C 16,1 C 0,0 km/h (0 Bft) 0,00 %
30.07.2015 08:04 16,2 C 74 % 1015,5 hPa 0,0 l/m 0,0 km/h (0 Bft) NO 50 5 min 0,000 mm 1,0 UV-I 311 W/m 11,6 C 16,2 C 0,0 km/h (0 Bft) 0,00 %
30.07.2015 08:09 16,1 C 74 % 1015,5 hPa 0,0 l/m 0,0 km/h (0 Bft) NO 35 5 min 0,000 mm 1,0 UV-I 231 W/m 11,5 C 16,1 C 0,0 km/h (0 Bft) 0,00 %
30.07.2015 08:14 16,0 C 75 % 1015,6 hPa 0,0 l/m 0,0 km/h (0 Bft) NO 52 5 min 0,000 mm 1,0 UV-I 259 W/m 11,6 C 16,0 C 0,0 km/h (0 Bft) 0,00 %
30.07.2015 08:19 16,1 C 73 % 1015,4 hPa 0,0 l/m 0,0 km/h (0 Bft) N 11 0 min 0,000 mm 1,0 UV-I 226 W/m 11,3 C 16,1 C 0,0 km/h (0 Bft) 0,00 %
30.07.2015 08:24 16,3 C 73 % 1015,6 hPa 0,0 l/m 0,0 km/h (0 Bft) N-NO 27 5 min 0,000 mm 1,0 UV-I 245 W/m 11,4 C 16,3 C 0,0 km/h (0 Bft) 0,00 %
30.07.2015 08:29 16,4 C 71 % 1015,4 hPa 0,0 l/m 0,0 km/h (0 Bft) N 355 5 min 0,000 mm 1,0 UV-I 328 W/m 11,1 C 16,4 C 0,0 km/h (0 Bft) 0,00 %
30.07.2015 08:34 16,5 C 70 % 1015,6 hPa 0,0 l/m 0,0 km/h (0 Bft) N 8 5 min 0,000 mm 1,0 UV-I 364 W/m 11,0 C 16,5 C 0,0 km/h (0 Bft) 0,00 %
30.07.2015 08:39 16,9 C 67 % 1015,5 hPa 0,0 l/m 0,0 km/h (0 Bft) NO 54 5 min 0,000 mm 1,0 UV-I 354 W/m 10,7 C 16,9 C 0,0 km/h (0 Bft) 0,00 %
30.07.2015 08:44 17,4 C 65 % 1015,5 hPa 0,0 l/m 0,0 km/h (0 Bft) N 351 5 min 0,000 mm 1,0 UV-I 393 W/m 10,8 C 17,4 C 0,0 km/h (0 Bft) 0,00 %
30.07.2015 08:49 17,7 C 65 % 1015,7 hPa 0,0 l/m 3,2 km/h (1 Bft) W-NW 286 5 min 0,000 mm 2,0 UV-I 416 W/m 11,0 C 17,7 C 7,9 km/h (2 Bft) 0,00 %
30.07.2015 08:54 18,0 C 62 % 1015,9 hPa 0,0 l/m 4,0 km/h (1 Bft) NW 311 5 min 0,000 mm 2,0 UV-I 451 W/m 10,6 C 18,0 C 4,0 km/h (1 Bft) 0,00 %
30.07.2015 08:59 17,9 C 65 % 1015,7 hPa 0,0 l/m 2,2 km/h (1 Bft) NO 54 5 min 0,000 mm 2,0 UV-I 479 W/m 11,2 C 17,9 C 4,0 km/h (1 Bft) 0,00 %
30.07.2015 09:04 17,9 C 64 % 1015,8 hPa 0,0 l/m 2,9 km/h (1 Bft) NW 312 5 min 0,000 mm 2,0 UV-I 492 W/m 11,0 C 17,9 C 4,0 km/h (1 Bft) 0,00 %
30.07.2015 09:09 18,1 C 61 % 1015,8 hPa 0,0 l/m 0,0 km/h (0 Bft) NO 41 5 min 0,000 mm 2,0 UV-I 497 W/m 10,5 C 18,1 C 0,0 km/h (0 Bft) 0,00 %
30.07.2015 09:14 18,1 C 63 % 1015,7 hPa 0,0 l/m 0,4 km/h (0 Bft) SW 227 5 min 0,000 mm 2,0 UV-I 490 W/m 10,9 C 18,1 C 4,0 km/h (1 Bft) 0,00 %
30.07.2015 09:19 18,4 C 59 % 1015,6 hPa 0,0 l/m 4,0 km/h (1 Bft) W-SW 256 5 min 0,000 mm 2,0 UV-I 420 W/m 10,2 C 18,4 C 7,9 km/h (2 Bft) 0,00 %
30.07.2015 09:24 18,9 C 56 % 1015,5 hPa 0,0 l/m 2,2 km/h (1 Bft) W-SW 256 5 min 0,000 mm 2,0 UV-I 490 W/m 9,9 C 18,9 C 4,0 km/h (1 Bft) 0,00 %
30.07.2015 09:29 19,2 C 58 % 1015,8 hPa 0,0 l/m 0,0 km/h (0 Bft) SW 228 5 min 0,000 mm 2,0 UV-I 564 W/m 10,7 C 19,2 C 0,0 km/h (0 Bft) 0,00 %
30.07.2015 09:34 19,4 C 55 % 1015,7 hPa 0,0 l/m 0,0 km/h (0 Bft) N-NW 346 5 min 0,000 mm 2,0 UV-I 568 W/m 10,1 C 19,4 C 0,0 km/h (0 Bft) 0,00 %
30.07.2015 09:39 19,3 C 55 % 1015,8 hPa 0,0 l/m 0,4 km/h (0 Bft) NO 54 5 min 0,000 mm 2,0 UV-I 516 W/m 10,0 C 19,3 C 4,0 km/h (1 Bft) 0,00 %
30.07.2015 09:44 19,2 C 56 % 1015,8 hPa 0,0 l/m 0,0 km/h (0 Bft) N-NW 345 5 min 0,000 mm 2,0 UV-I 640 W/m 10,2 C 19,2 C 0,0 km/h (0 Bft) 0,00 %
30.07.2015 09:49 19,6 C 55 % 1015,8 hPa 0,0 l/m 0,0 km/h (0 Bft) NO 38 0 min 0,000 mm 1,0 UV-I 287 W/m 10,3 C 19,6 C 0,0 km/h (0 Bft) 0,00 %
30.07.2015 09:54 19,9 C 56 % 1015,8 hPa 0,0 l/m 0,0 km/h (0 Bft) N-NW 344 0 min 0,000 mm 2,0 UV-I 295 W/m 10,9 C 19,9 C 0,0 km/h (0 Bft) 0,00 %
30.07.2015 09:59 19,6 C 55 % 1015,9 hPa 0,0 l/m 0,0 km/h (0 Bft) N-NO 25 5 min 0,000 mm 2,0 UV-I 520 W/m 10,3 C 19,6 C 0,0 km/h (0 Bft) 0,00 %
30.07.2015 10:04 19,3 C 54 % 1015,8 hPa 0,0 l/m 0,0 km/h (0 Bft) NO 46 0 min 0,000 mm 2,0 UV-I 348 W/m 9,8 C 19,3 C 0,0 km/h (0 Bft) 0,00 %
30.07.2015 10:09 19,4 C 54 % 1015,8 hPa 0,0 l/m 0,7 km/h (0 Bft) NO 45 5 min 0,000 mm 2,0 UV-I 449 W/m 9,8 C 19,4 C 4,0 km/h (1 Bft) 0,00 %
30.07.2015 10:14 19,4 C 53 % 1015,7 hPa 0,0 l/m 2,9 km/h (1 Bft) N-NW 333 0 min 0,000 mm 2,0 UV-I 319 W/m 9,6 C 19,4 C 4,0 km/h (1 Bft) 0,00 %
30.07.2015 10:19 19,1 C 57 % 1015,8 hPa 0,0 l/m 0,0 km/h (0 Bft) N 354 5 min 0,000 mm 2,0 UV-I 530 W/m 10,4 C 19,1 C 0,0 km/h (0 Bft) 0,00 %
30.07.2015 10:24 18,7 C 56 % 1015,8 hPa 0,0 l/m 0,0 km/h (0 Bft) N-NO 31 5 min 0,000 mm 3,0 UV-I 690 W/m 9,7 C 18,7 C 0,0 km/h (0 Bft) 0,00 %
30.07.2015 10:29 18,7 C 59 % 1015,8 hPa 0,0 l/m 1,4 km/h (1 Bft) W-NW 301 5 min 0,000 mm 3,0 UV-I 600 W/m 10,5 C 18,7 C 4,0 km/h (1 Bft) 0,00 %
30.07.2015 10:34 19,3 C 53 % 1015,8 hPa 0,0 l/m 0,0 km/h (0 Bft) N-NO 19 0 min 0,000 mm 2,0 UV-I 337 W/m 9,5 C 19,3 C 0,0 km/h (0 Bft) 0,00 %
30.07.2015 10:39 19,7 C 54 % 1015,8 hPa 0,0 l/m 1,8 km/h (1 Bft) W-NW 298 5 min 0,000 mm 4,0 UV-I 870 W/m 10,1 C 19,7 C 4,0 km/h (1 Bft) 0,00 %
30.07.2015 10:44 20,0 C 53 % 1015,7 hPa 0,0 l/m 0,0 km/h (0 Bft) N 352 5 min 0,000 mm 2,0 UV-I 444 W/m 10,1 C 20,0 C 0,0 km/h (0 Bft) 0,00 %
30.07.2015 10:49 20,6 C 48 % 1015,7 hPa 0,0 l/m 0,0 km/h (0 Bft) N 349 5 min 0,000 mm 2,0 UV-I 411 W/m 9,2 C 20,6 C 0,0 km/h (0 Bft) 0,00 %
30.07.2015 10:54 21,0 C 48 % 1015,8 hPa 0,0 l/m 0,0 km/h (0 Bft) N-NW 338 0 min 0,000 mm 2,0 UV-I 381 W/m 9,6 C 21,0 C 0,0 km/h (0 Bft) 0,00 %
30.07.2015 10:59 21,0 C 49 % 1015,9 hPa 0,0 l/m 0,0 km/h (0 Bft) N-NO 18 5 min 0,000 mm 4,0 UV-I 874 W/m 9,9 C 21,0 C 0,0 km/h (0 Bft) 0,00 %
30.07.2015 11:04 20,8 C 51 % 1015,8 hPa 0,0 l/m 0,0 km/h (0 Bft) N-NW 342 0 min 0,000 mm 2,0 UV-I 327 W/m 10,3 C 20,8 C 0,0 km/h (0 Bft) 0,00 %
30.07.2015 11:09 20,8 C 50 % 1015,7 hPa 0,0 l/m 1,4 km/h (1 Bft) N-NW 345 0 min 0,000 mm 1,0 UV-I 295 W/m 10,0 C 20,8 C 4,0 km/h (1 Bft) 0,00 %
30.07.2015 11:14 20,1 C 52 % 1015,8 hPa 0,0 l/m 0,0 km/h (0 Bft) NW 319 0 min 0,000 mm 1,0 UV-I 247 W/m 9,9 C 20,1 C 0,0 km/h (0 Bft) 0,00 %
30.07.2015 11:19 19,3 C 53 % 1015,8 hPa 0,0 l/m 0,0 km/h (0 Bft) NO 56 5 min 0,000 mm 3,0 UV-I 702 W/m 9,5 C 19,3 C 0,0 km/h (0 Bft) 0,00 %
30.07.2015 11:24 19,0 C 53 % 1015,8 hPa 0,0 l/m 0,4 km/h (0 Bft) N 349 0 min 0,000 mm 2,0 UV-I 348 W/m 9,2 C 19,0 C 4,0 km/h (1 Bft) 0,00 %
30.07.2015 11:29 19,3 C 52 % 1015,9 hPa 0,0 l/m 0,4 km/h (0 Bft) N 351 0 min 0,000 mm 1,0 UV-I 257 W/m 9,2 C 19,3 C 4,0 km/h (1 Bft) 0,00 %
30.07.2015 11:34 19,3 C 52 % 1015,8 hPa 0,0 l/m 4,0 km/h (1 Bft) W 274 0 min 0,000 mm 2,0 UV-I 280 W/m 9,2 C 19,3 C 4,0 km/h (1 Bft) 0,00 %
30.07.2015 11:39 19,0 C 51 % 1015,7 hPa 0,0 l/m 0,0 km/h (0 Bft) NO 52 0 min 0,000 mm 2,0 UV-I 350 W/m 8,6 C 19,0 C 0,0 km/h (0 Bft) 0,00 %
30.07.2015 11:44 19,1 C 51 % 1015,8 hPa 0,0 l/m 0,0 km/h (0 Bft) N-NO 18 0 min 0,000 mm 2,0 UV-I 358 W/m 8,7 C 19,1 C 0,0 km/h (0 Bft) 0,00 %
30.07.2015 11:49 19,5 C 53 % 1015,7 hPa 0,0 l/m 0,0 km/h (0 Bft) N-NO 29 0 min 0,000 mm 2,0 UV-I 413 W/m 9,7 C 19,5 C 0,0 km/h (0 Bft) 0,00 %
30.07.2015 11:54 19,7 C 52 % 1015,7 hPa 0,0 l/m 0,0 km/h (0 Bft) SW 230 0 min 0,000 mm 2,0 UV-I 321 W/m 9,6 C 19,7 C 0,0 km/h (0 Bft) 0,00 %
30.07.2015 11:59 19,6 C 53 % 1015,8 hPa 0,0 l/m 0,0 km/h (0 Bft) N 350 0 min 0,000 mm 1,0 UV-I 243 W/m 9,8 C 19,6 C 0,0 km/h (0 Bft) 0,00 %
30.07.2015 12:04 19,5 C 52 % 1015,8 hPa 0,0 l/m 0,0 km/h (0 Bft) N 356 0 min 0,000 mm 1,0 UV-I 194 W/m 9,4 C 19,5 C 0,0 km/h (0 Bft) 0,00 %
30.07.2015 12:09 19,3 C 53 % 1015,8 hPa 0,0 l/m 4,3 km/h (1 Bft) W-NW 283 0 min 0,000 mm 1,0 UV-I 200 W/m 9,5 C 19,3 C 7,9 km/h (2 Bft) 0,00 %
30.07.2015 12:14 18,9 C 54 % 1015,8 hPa 0,0 l/m 3,2 km/h (1 Bft) N-NW 330 0 min 0,000 mm 1,0 UV-I 276 W/m 9,4 C 18,9 C 7,9 km/h (2 Bft) 0,00 %
30.07.2015 12:19 18,8 C 55 % 1015,8 hPa 0,0 l/m 0,4 km/h (0 Bft) NW 319 0 min 0,000 mm 2,0 UV-I 369 W/m 9,6 C 18,8 C 4,0 km/h (1 Bft) 0,00 %
30.07.2015 12:24 18,9 C 55 % 1015,7 hPa 0,0 l/m 0,4 km/h (0 Bft) N-NO 31 0 min 0,000 mm 1,0 UV-I 282 W/m 9,7 C 18,9 C 4,0 km/h (1 Bft) 0,00 %
30.07.2015 12:29 18,9 C 53 % 1015,8 hPa 0,0 l/m 0,0 km/h (0 Bft) N-NO 15 0 min 0,000 mm 1,0 UV-I 240 W/m 9,1 C 18,9 C 0,0 km/h (0 Bft) 0,00 %
30.07.2015 12:34 18,9 C 53 % 1015,6 hPa 0,0 l/m 0,0 km/h (0 Bft) NO 54 0 min 0,000 mm 2,0 UV-I 311 W/m 9,1 C 18,9 C 0,0 km/h (0 Bft) 0,00 %
30.07.2015 12:39 19,0 C 53 % 1015,7 hPa 0,0 l/m 0,4 km/h (0 Bft) N-NO 32 5 min 0,000 mm 3,0 UV-I 474 W/m 9,2 C 19,0 C 4,0 km/h (1 Bft) 0,00 %
30.07.2015 12:44 19,3 C 51 % 1015,5 hPa 0,0 l/m 1,8 km/h (1 Bft) W 281 0 min 0,000 mm 3,0 UV-I 462 W/m 8,9 C 19,3 C 4,0 km/h (1 Bft) 0,00 %
30.07.2015 12:49 19,7 C 49 % 1015,4 hPa 0,0 l/m 3,2 km/h (1 Bft) NW 305 5 min 0,000 mm 4,0 UV-I 678 W/m 8,7 C 19,7 C 4,0 km/h (1 Bft) 0,00 %
30.07.2015 12:54 20,2 C 50 % 1015,5 hPa 0,0 l/m 0,0 km/h (0 Bft) NO 36 5 min 0,000 mm 3,0 UV-I 525 W/m 9,4 C 20,2 C 0,0 km/h (0 Bft) 0,00 %
30.07.2015 12:59 20,5 C 47 % 1015,5 hPa 0,0 l/m 0,0 km/h (0 Bft) O-NO 66 0 min 0,000 mm 2,0 UV-I 463 W/m 8,8 C 20,5 C 0,0 km/h (0 Bft) 0,00 %
30.07.2015 13:04 20,6 C 49 % 1015,4 hPa 0,0 l/m 0,0 km/h (0 Bft) N 350 0 min 0,000 mm 2,0 UV-I 438 W/m 9,5 C 20,6 C 0,0 km/h (0 Bft) 0,00 %
30.07.2015 13:09 20,7 C 48 % 1015,4 hPa 0,0 l/m 0,0 km/h (0 Bft) NO 43 5 min 0,000 mm 5,0 UV-I 1035 W/m 9,3 C 20,7 C 0,0 km/h (0 Bft) 0,00 %
30.07.2015 13:14 20,6 C 49 % 1015,6 hPa 0,0 l/m 3,2 km/h (1 Bft) SW 225 5 min 0,000 mm 3,0 UV-I 536 W/m 9,5 C 20,6 C 4,0 km/h (1 Bft) 0,00 %
30.07.2015 13:19 20,7 C 49 % 1015,5 hPa 0,0 l/m 0,0 km/h (0 Bft) SW 223 5 min 0,000 mm 4,0 UV-I 809 W/m 9,6 C 20,7 C 0,0 km/h (0 Bft) 0,00 %
30.07.2015 13:24 20,7 C 47 % 1015,5 hPa 0,0 l/m 0,0 km/h (0 Bft) N 351 0 min 0,000 mm 2,0 UV-I 415 W/m 9,0 C 20,7 C 0,0 km/h (0 Bft) 0,00 %
30.07.2015 13:29 20,7 C 47 % 1015,6 hPa 0,0 l/m 0,0 km/h (0 Bft) N-NW 329 5 min 0,000 mm 4,0 UV-I 742 W/m 9,0 C 20,7 C 0,0 km/h (0 Bft) 0,00 %
30.07.2015 13:34 21,0 C 46 % 1015,4 hPa 0,0 l/m 0,0 km/h (0 Bft) W-NW 293 0 min 0,000 mm 2,0 UV-I 468 W/m 8,9 C 21,0 C 0,0 km/h (0 Bft) 0,00 %
30.07.2015 13:39 21,3 C 46 % 1015,5 hPa 0,0 l/m 0,0 km/h (0 Bft) W-NW 292 0 min 0,000 mm 2,0 UV-I 451 W/m 9,2 C 21,3 C 0,0 km/h (0 Bft) 0,00 %
30.07.2015 13:44 21,3 C 44 % 1015,3 hPa 0,0 l/m 0,0 km/h (0 Bft) O 93 0 min 0,000 mm 2,0 UV-I 361 W/m 8,5 C 21,3 C 0,0 km/h (0 Bft) 0,00 %
30.07.2015 13:49 21,4 C 44 % 1015,3 hPa 0,0 l/m 0,0 km/h (0 Bft) O-NO 71 5 min 0,000 mm 3,0 UV-I 514 W/m 8,6 C 21,4 C 0,0 km/h (0 Bft) 0,00 %
30.07.2015 13:54 21,3 C 42 % 1015,2 hPa 0,0 l/m 4,0 km/h (1 Bft) SW 221 5 min 0,000 mm 3,0 UV-I 478 W/m 7,9 C 21,3 C 4,0 km/h (1 Bft) 0,00 %
30.07.2015 13:59 21,3 C 42 % 1015,3 hPa 0,0 l/m 0,0 km/h (0 Bft) N-NO 24 0 min 0,000 mm 3,0 UV-I 459 W/m 7,9 C 21,3 C 0,0 km/h (0 Bft) 0,00 %
30.07.2015 14:04 21,5 C 44 % 1015,3 hPa 0,0 l/m 0,0 km/h (0 Bft) NO 47 5 min 0,000 mm 3,0 UV-I 502 W/m 8,7 C 21,5 C 0,0 km/h (0 Bft) 0,00 %
30.07.2015 14:09 21,4 C 42 % 1015,1 hPa 0,0 l/m 0,4 km/h (0 Bft) N 10 0 min 0,000 mm 2,0 UV-I 358 W/m 8,0 C 21,4 C 4,0 km/h (1 Bft) 0,00 %
30.07.2015 14:14 21,1 C 46 % 1015,2 hPa 0,0 l/m 0,4 km/h (0 Bft) N-NW 331 0 min 0,000 mm 1,0 UV-I 300 W/m 9,0 C 21,1 C 4,0 km/h (1 Bft) 0,00 %
30.07.2015 14:19 20,9 C 48 % 1015,2 hPa 0,0 l/m 0,0 km/h (0 Bft) NO 55 5 min 0,000 mm 3,0 UV-I 584 W/m 9,5 C 20,9 C 0,0 km/h (0 Bft) 0,00 %
30.07.2015 14:24 21,1 C 42 % 1015,3 hPa 0,0 l/m 0,7 km/h (0 Bft) SW 217 5 min 0,000 mm 5,0 UV-I 1055 W/m 7,7 C 21,1 C 4,0 km/h (1 Bft) 0,00 %
30.07.2015 14:29 21,4 C 40 % 1015,1 hPa 0,0 l/m 0,0 km/h (0 Bft) NO 39 5 min 0,000 mm 3,0 UV-I 612 W/m 7,2 C 21,4 C 0,0 km/h (0 Bft) 0,00 %
30.07.2015 14:34 21,7 C 42 % 1015,0 hPa 0,0 l/m 0,0 km/h (0 Bft) O-NO 57 0 min 0,000 mm 2,0 UV-I 329 W/m 8,2 C 21,7 C 0,0 km/h (0 Bft) 0,00 %
30.07.2015 14:39 21,9 C 39 % 1015,2 hPa 0,0 l/m 0,0 km/h (0 Bft) NO 45 0 min 0,000 mm 1,0 UV-I 251 W/m 7,3 C 21,9 C 0,0 km/h (0 Bft) 0,00 %
30.07.2015 14:44 21,8 C 45 % 1015,1 hPa 0,0 l/m 0,0 km/h (0 Bft) NO 38 0 min 0,000 mm 1,0 UV-I 275 W/m 9,3 C 21,8 C 0,0 km/h (0 Bft) 0,00 %
30.07.2015 14:49 21,5 C 40 % 1015,1 hPa 0,0 l/m 1,8 km/h (1 Bft) N 349 0 min 0,000 mm 2,0 UV-I 356 W/m 7,3 C 21,5 C 4,0 km/h (1 Bft) 0,00 %
30.07.2015 14:54 21,2 C 43 % 1015,1 hPa 0,0 l/m 0,0 km/h (0 Bft) N 354 0 min 0,000 mm 2,0 UV-I 416 W/m 8,1 C 21,2 C 0,0 km/h (0 Bft) 0,00 %
30.07.2015 14:59 21,0 C 45 % 1015,1 hPa 0,0 l/m 0,0 km/h (0 Bft) O-NO 72 5 min 0,000 mm 2,0 UV-I 457 W/m 8,6 C 21,0 C 0,0 km/h (0 Bft) 0,00 %
30.07.2015 15:04 21,0 C 49 % 1015,1 hPa 0,0 l/m 2,9 km/h (1 Bft) W-NW 294 5 min 0,000 mm 2,0 UV-I 477 W/m 9,9 C 21,0 C 4,0 km/h (1 Bft) 0,00 %
30.07.2015 15:09 21,1 C 41 % 1015,0 hPa 0,0 l/m 0,4 km/h (0 Bft) W-SW 256 5 min 0,000 mm 2,0 UV-I 468 W/m 7,3 C 21,1 C 4,0 km/h (1 Bft) 0,00 %
30.07.2015 15:14 21,2 C 45 % 1015,0 hPa 0,0 l/m 0,4 km/h (0 Bft) N 353 5 min 0,000 mm 2,0 UV-I 474 W/m 8,8 C 21,2 C 4,0 km/h (1 Bft) 0,00 %
30.07.2015 15:19 21,3 C 43 % 1014,9 hPa 0,0 l/m 1,8 km/h (1 Bft) W-NW 296 5 min 0,000 mm 2,0 UV-I 473 W/m 8,2 C 21,3 C 4,0 km/h (1 Bft) 0,00 %
30.07.2015 15:24 21,2 C 41 % 1015,2 hPa 0,0 l/m 0,0 km/h (0 Bft) N-NO 29 5 min 0,000 mm 3,0 UV-I 534 W/m 7,4 C 21,2 C 0,0 km/h (0 Bft) 0,00 %
30.07.2015 15:29 21,2 C 40 % 1014,9 hPa 0,0 l/m 0,4 km/h (0 Bft) O-NO 66 5 min 0,000 mm 4,0 UV-I 1028 W/m 7,1 C 21,2 C 4,0 km/h (1 Bft) 0,00 %
30.07.2015 15:34 21,7 C 42 % 1015,0 hPa 0,0 l/m 2,9 km/h (1 Bft) N-NW 335 5 min 0,000 mm 2,0 UV-I 449 W/m 8,2 C 21,7 C 4,0 km/h (1 Bft) 0,00 %
30.07.2015 15:39 21,9 C 41 % 1014,9 hPa 0,0 l/m 0,0 km/h (0 Bft) NO 49 0 min 0,000 mm 2,0 UV-I 320 W/m 8,0 C 21,9 C 0,0 km/h (0 Bft) 0,00 %
30.07.2015 15:44 22,0 C 42 % 1014,8 hPa 0,0 l/m 0,0 km/h (0 Bft) NO 48 0 min 0,000 mm 1,0 UV-I 256 W/m 8,5 C 22,0 C 0,0 km/h (0 Bft) 0,00 %
30.07.2015 15:49 21,7 C 42 % 1014,8 hPa 0,0 l/m 1,8 km/h (1 Bft) N-NO 18 0 min 0,000 mm 2,0 UV-I 317 W/m 8,2 C 21,7 C 4,0 km/h (1 Bft) 0,00 %
30.07.2015 15:54 21,0 C 44 % 1014,9 hPa 0,0 l/m 0,0 km/h (0 Bft) N-NO 26 0 min 0,000 mm 2,0 UV-I 376 W/m 8,3 C 21,0 C 0,0 km/h (0 Bft) 0,00 %
30.07.2015 15:59 20,6 C 46 % 1015,0 hPa 0,0 l/m 2,9 km/h (1 Bft) W-SW 256 0 min 0,000 mm 2,0 UV-I 368 W/m 8,6 C 20,6 C 4,0 km/h (1 Bft) 0,00 %
30.07.2015 16:04 20,5 C 46 % 1014,9 hPa 0,0 l/m 5,8 km/h (2 Bft) W-NW 283 5 min 0,000 mm 2,0 UV-I 495 W/m 8,5 C 20,5 C 7,9 km/h (2 Bft) 0,00 %
30.07.2015 16:09 20,8 C 45 % 1015,0 hPa 0,0 l/m 0,0 km/h (0 Bft) NW 320 5 min 0,000 mm 3,0 UV-I 998 W/m 8,4 C 20,8 C 0,0 km/h (0 Bft) 0,00 %
30.07.2015 16:14 21,2 C 42 % 1014,9 hPa 0,0 l/m 0,0 km/h (0 Bft) N 353 5 min 0,000 mm 2,0 UV-I 453 W/m 7,8 C 21,2 C 0,0 km/h (0 Bft) 0,00 %
30.07.2015 16:19 21,6 C 41 % 1014,9 hPa 0,0 l/m 1,8 km/h (1 Bft) W-SW 255 5 min 0,000 mm 2,0 UV-I 412 W/m 7,8 C 21,6 C 4,0 km/h (1 Bft) 0,00 %
30.07.2015 16:24 21,8 C 43 % 1015,0 hPa 0,0 l/m 0,0 km/h (0 Bft) NO 52 5 min 0,000 mm 3,0 UV-I 1005 W/m 8,7 C 21,8 C 0,0 km/h (0 Bft) 0,00 %
30.07.2015 16:29 21,7 C 39 % 1014,8 hPa 0,0 l/m 0,0 km/h (0 Bft) NO 34 5 min 0,000 mm 2,0 UV-I 465 W/m 7,1 C 21,7 C 0,0 km/h (0 Bft) 0,00 %
30.07.2015 16:34 21,8 C 40 % 1014,7 hPa 0,0 l/m 0,0 km/h (0 Bft) NO 40 5 min 0,000 mm 2,0 UV-I 348 W/m 7,6 C 21,8 C 0,0 km/h (0 Bft) 0,00 %
30.07.2015 16:39 21,7 C 41 % 1014,9 hPa 0,0 l/m 4,7 km/h (1 Bft) W-NW 296 0 min 0,000 mm 2,0 UV-I 336 W/m 7,9 C 21,7 C 7,9 km/h (2 Bft) 0,00 %
30.07.2015 16:44 21,2 C 43 % 1014,7 hPa 0,0 l/m 0,0 km/h (0 Bft) N-NO 28 5 min 0,000 mm 2,0 UV-I 422 W/m 8,1 C 21,2 C 0,0 km/h (0 Bft) 0,00 %
30.07.2015 16:49 21,0 C 41 % 1014,5 hPa 0,0 l/m 4,0 km/h (1 Bft) W-NW 300 5 min 0,000 mm 2,0 UV-I 601 W/m 7,2 C 21,0 C 7,9 km/h (2 Bft) 0,00 %
30.07.2015 16:54 21,1 C 41 % 1014,5 hPa 0,0 l/m 2,9 km/h (1 Bft) N-NW 331 5 min 0,000 mm 2,0 UV-I 1028 W/m 7,3 C 21,1 C 4,0 km/h (1 Bft) 0,00 %
30.07.2015 16:59 21,5 C 39 % 1014,4 hPa 0,0 l/m 1,4 km/h (1 Bft) N-NW 329 5 min 0,000 mm 2,0 UV-I 487 W/m 7,0 C 21,5 C 4,0 km/h (1 Bft) 0,00 %
30.07.2015 17:04 22,1 C 39 % 1014,6 hPa 0,0 l/m 0,4 km/h (0 Bft) W-SW 244 5 min 0,000 mm 1,0 UV-I 384 W/m 7,5 C 22,1 C 4,0 km/h (1 Bft) 0,00 %
30.07.2015 17:09 22,2 C 40 % 1014,4 hPa 0,0 l/m 0,0 km/h (0 Bft) N-NO 30 5 min 0,000 mm 1,0 UV-I 399 W/m 8,0 C 22,2 C 0,0 km/h (0 Bft) 0,00 %
30.07.2015 17:14 21,9 C 40 % 1014,5 hPa 0,0 l/m 0,0 km/h (0 Bft) NO 43 5 min 0,000 mm 1,0 UV-I 415 W/m 7,7 C 21,9 C 0,0 km/h (0 Bft) 0,00 %
30.07.2015 17:19 21,6 C 39 % 1014,6 hPa 0,0 l/m 0,0 km/h (0 Bft) N-NW 345 5 min 0,000 mm 1,0 UV-I 443 W/m 7,0 C 21,6 C 0,0 km/h (0 Bft) 0,00 %
30.07.2015 17:24 21,6 C 42 % 1014,5 hPa 0,0 l/m 1,8 km/h (1 Bft) W-NW 287 5 min 0,000 mm 1,0 UV-I 780 W/m 8,1 C 21,6 C 4,0 km/h (1 Bft) 0,00 %
30.07.2015 17:29 21,8 C 39 % 1014,4 hPa 0,0 l/m 0,4 km/h (0 Bft) N 2 5 min 0,000 mm 1,0 UV-I 323 W/m 7,2 C 21,8 C 4,0 km/h (1 Bft) 0,00 %
30.07.2015 17:34 21,8 C 39 % 1014,3 hPa 0,0 l/m 0,0 km/h (0 Bft) NO 37 5 min 0,000 mm 1,0 UV-I 353 W/m 7,2 C 21,8 C 0,0 km/h (0 Bft) 0,00 %
30.07.2015 17:39 21,6 C 38 % 1014,5 hPa 0,0 l/m 0,0 km/h (0 Bft) N-NO 32 5 min 0,000 mm 1,0 UV-I 289 W/m 6,7 C 21,6 C 0,0 km/h (0 Bft) 0,00 %
30.07.2015 17:44 21,5 C 40 % 1014,5 hPa 0,0 l/m 0,0 km/h (0 Bft) NO 52 5 min 0,000 mm 1,0 UV-I 740 W/m 7,3 C 21,5 C 0,0 km/h (0 Bft) 0,00 %
30.07.2015 17:49 21,5 C 42 % 1014,4 hPa 0,0 l/m 3,2 km/h (1 Bft) NW 320 5 min 0,000 mm 1,0 UV-I 350 W/m 8,0 C 21,5 C 4,0 km/h (1 Bft) 0,00 %
30.07.2015 17:54 21,5 C 41 % 1014,6 hPa 0,0 l/m 2,9 km/h (1 Bft) W-NW 295 5 min 0,000 mm 1,0 UV-I 698 W/m 7,7 C 21,5 C 4,0 km/h (1 Bft) 0,00 %
30.07.2015 17:59 21,7 C 42 % 1014,3 hPa 0,0 l/m 0,4 km/h (0 Bft) NO 35 5 min 0,000 mm 1,0 UV-I 755 W/m 8,2 C 21,7 C 4,0 km/h (1 Bft) 0,00 %
30.07.2015 18:04 22,0 C 41 % 1014,3 hPa 0,0 l/m 2,9 km/h (1 Bft) N 354 5 min 0,000 mm 1,0 UV-I 776 W/m 8,1 C 22,0 C 4,0 km/h (1 Bft) 0,00 %
30.07.2015 18:09 22,1 C 42 % 1014,3 hPa 0,0 l/m 0,4 km/h (0 Bft) O-SO 113 5 min 0,000 mm 1,0 UV-I 728 W/m 8,6 C 22,1 C 4,0 km/h (1 Bft) 0,00 %
30.07.2015 18:14 22,1 C 42 % 1014,2 hPa 0,0 l/m 0,0 km/h (0 Bft) NO 53 5 min 0,000 mm 1,0 UV-I 622 W/m 8,6 C 22,1 C 0,0 km/h (0 Bft) 0,00 %
30.07.2015 18:19 21,9 C 39 % 1014,4 hPa 0,0 l/m 1,4 km/h (1 Bft) W-SW 238 0 min 0,000 mm 1,0 UV-I 182 W/m 7,3 C 21,9 C 4,0 km/h (1 Bft) 0,00 %
30.07.2015 18:24 21,5 C 40 % 1014,2 hPa 0,0 l/m 0,0 km/h (0 Bft) NO 40 0 min 0,000 mm 1,0 UV-I 172 W/m 7,3 C 21,5 C 0,0 km/h (0 Bft) 0,00 %
30.07.2015 18:29 21,3 C 43 % 1014,4 hPa 0,0 l/m 0,0 km/h (0 Bft) NO 42 5 min 0,000 mm 1,0 UV-I 577 W/m 8,2 C 21,3 C 0,0 km/h (0 Bft) 0,00 %
30.07.2015 18:34 21,1 C 41 % 1014,4 hPa 0,0 l/m 0,0 km/h (0 Bft) NO 42 5 min 0,000 mm 1,0 UV-I 402 W/m 7,3 C 21,1 C 0,0 km/h (0 Bft) 0,00 %
30.07.2015 18:39 21,0 C 41 % 1014,4 hPa 0,0 l/m 0,0 km/h (0 Bft) N-NW 346 5 min 0,000 mm 1,0 UV-I 368 W/m 7,2 C 21,0 C 0,0 km/h (0 Bft) 0,00 %
30.07.2015 18:44 21,0 C 43 % 1014,2 hPa 0,0 l/m 0,0 km/h (0 Bft) NO 51 5 min 0,000 mm 1,0 UV-I 459 W/m 7,9 C 21,0 C 0,0 km/h (0 Bft) 0,00 %
30.07.2015 18:49 21,0 C 47 % 1014,3 hPa 0,0 l/m 0,0 km/h (0 Bft) O-NO 73 5 min 0,000 mm 1,0 UV-I 455 W/m 9,3 C 21,0 C 0,0 km/h (0 Bft) 0,00 %
30.07.2015 18:54 20,8 C 44 % 1014,5 hPa 0,0 l/m 0,0 km/h (0 Bft) NO 43 5 min 0,000 mm 1,0 UV-I 176 W/m 8,1 C 20,8 C 0,0 km/h (0 Bft) 0,00 %
30.07.2015 18:59 20,5 C 45 % 1014,4 hPa 0,0 l/m 0,0 km/h (0 Bft) N-NO 26 5 min 0,000 mm 1,0 UV-I 386 W/m 8,2 C 20,5 C 0,0 km/h (0 Bft) 0,00 %
30.07.2015 19:04 20,3 C 49 % 1014,6 hPa 0,0 l/m 0,0 km/h (0 Bft) NO 35 5 min 0,000 mm 1,0 UV-I 430 W/m 9,2 C 20,3 C 0,0 km/h (0 Bft) 0,00 %
30.07.2015 19:09 20,3 C 47 % 1014,4 hPa 0,0 l/m 0,0 km/h (0 Bft) NO 44 5 min 0,000 mm 1,0 UV-I 227 W/m 8,6 C 20,3 C 0,0 km/h (0 Bft) 0,00 %
30.07.2015 19:14 20,5 C 45 % 1014,4 hPa 0,0 l/m 0,0 km/h (0 Bft) NO 50 5 min 0,000 mm 1,0 UV-I 369 W/m 8,2 C 20,5 C 0,0 km/h (0 Bft) 0,00 %
30.07.2015 19:19 20,6 C 46 % 1014,7 hPa 0,0 l/m 0,0 km/h (0 Bft) N-NO 27 5 min 0,000 mm 1,0 UV-I 166 W/m 8,6 C 20,6 C 0,0 km/h (0 Bft) 0,00 %
30.07.2015 19:24 20,7 C 45 % 1014,6 hPa 0,0 l/m 0,0 km/h (0 Bft) NO 40 5 min 0,000 mm 0,0 UV-I 160 W/m 8,3 C 20,7 C 0,0 km/h (0 Bft) 0,00 %
30.07.2015 19:29 20,4 C 45 % 1014,5 hPa 0,0 l/m 0,0 km/h (0 Bft) NO 43 0 min 0,000 mm 0,0 UV-I 82 W/m 8,1 C 20,4 C 0,0 km/h (0 Bft) 0,00 %
30.07.2015 19:34 19,8 C 46 % 1014,8 hPa 0,0 l/m 0,0 km/h (0 Bft) NO 36 0 min 0,000 mm 0,0 UV-I 89 W/m 7,8 C 19,8 C 0,0 km/h (0 Bft) 0,00 %
30.07.2015 19:39 19,4 C 51 % 1014,8 hPa 0,0 l/m 0,4 km/h (0 Bft) N 354 0 min 0,000 mm 0,0 UV-I 68 W/m 9,0 C 19,4 C 4,0 km/h (1 Bft) 0,00 %
30.07.2015 19:44 19,0 C 52 % 1014,9 hPa 0,0 l/m 0,0 km/h (0 Bft) W-SW 250 0 min 0,000 mm 0,0 UV-I 68 W/m 8,9 C 19,0 C 0,0 km/h (0 Bft) 0,00 %
30.07.2015 19:49 18,7 C 54 % 1014,8 hPa 0,0 l/m 0,0 km/h (0 Bft) W-SW 250 5 min 0,000 mm 0,0 UV-I 79 W/m 9,2 C 18,7 C 0,0 km/h (0 Bft) 0,00 %
30.07.2015 19:54 18,4 C 56 % 1014,8 hPa 0,0 l/m 0,0 km/h (0 Bft) W-SW 250 5 min 0,000 mm 0,0 UV-I 71 W/m 9,5 C 18,4 C 0,0 km/h (0 Bft) 0,00 %
30.07.2015 19:59 18,1 C 58 % 1014,7 hPa 0,0 l/m 0,0 km/h (0 Bft) W-SW 250 0 min 0,000 mm 0,0 UV-I 52 W/m 9,7 C 18,1 C 0,0 km/h (0 Bft) 0,00 %
30.07.2015 20:04 17,8 C 61 % 1014,7 hPa 0,0 l/m 0,0 km/h (0 Bft) W-SW 251 0 min 0,000 mm 0,0 UV-I 36 W/m 10,2 C 17,8 C 0,0 km/h (0 Bft) 0,00 %
30.07.2015 20:09 17,5 C 60 % 1014,8 hPa 0,0 l/m 0,0 km/h (0 Bft) W-SW 251 0 min 0,000 mm 0,0 UV-I 31 W/m 9,6 C 17,5 C 0,0 km/h (0 Bft) 0,00 %
30.07.2015 20:14 17,2 C 62 % 1014,8 hPa 0,0 l/m 0,0 km/h (0 Bft) W-SW 251 0 min 0,000 mm 0,0 UV-I 25 W/m 9,9 C 17,2 C 0,0 km/h (0 Bft) 0,00 %
30.07.2015 20:19 17,0 C 62 % 1014,9 hPa 0,0 l/m 0,0 km/h (0 Bft) W-SW 251 0 min 0,000 mm 0,0 UV-I 21 W/m 9,7 C 17,0 C 0,0 km/h (0 Bft) 0,00 %
30.07.2015 20:24 16,7 C 63 % 1014,9 hPa 0,0 l/m 0,0 km/h (0 Bft) W-SW 251 0 min 0,000 mm 0,0 UV-I 16 W/m 9,6 C 16,7 C 0,0 km/h (0 Bft) 0,00 %
30.07.2015 20:29 16,4 C 63 % 1015,1 hPa 0,0 l/m 0,0 km/h (0 Bft) W-SW 251 0 min 0,000 mm 0,0 UV-I 7 W/m 9,3 C 16,4 C 0,0 km/h (0 Bft) 0,00 %
30.07.2015 20:34 16,1 C 66 % 1015,2 hPa 0,0 l/m 0,0 km/h (0 Bft) W-SW 251 0 min 0,000 mm 0,0 UV-I 2 W/m 9,7 C 16,1 C 0,0 km/h (0 Bft) 0,00 %
30.07.2015 20:39 15,9 C 65 % 1015,0 hPa 0,0 l/m 0,0 km/h (0 Bft) W-SW 251 0 min 0,000 mm 0,0 UV-I 0 W/m 9,3 C 15,9 C 0,0 km/h (0 Bft) 0,00 %
30.07.2015 20:44 15,8 C 64 % 1015,1 hPa 0,0 l/m 0,0 km/h (0 Bft) W-SW 251 0 min 0,000 mm 0,0 UV-I 0 W/m 9,0 C 15,8 C 0,0 km/h (0 Bft) 0,00 %
30.07.2015 20:49 15,7 C 65 % 1015,2 hPa 0,0 l/m 0,0 km/h (0 Bft) W-SW 251 0 min 0,000 mm 0,0 UV-I 0 W/m 9,1 C 15,7 C 0,0 km/h (0 Bft) 0,00 %
30.07.2015 20:54 15,6 C 68 % 1015,1 hPa 0,0 l/m 0,0 km/h (0 Bft) W-SW 251 0 min 0,000 mm 0,0 UV-I 0 W/m 9,7 C 15,6 C 0,0 km/h (0 Bft) 0,00 %
30.07.2015 20:59 15,5 C 69 % 1015,2 hPa 0,0 l/m 0,0 km/h (0 Bft) W-SW 251 0 min 0,000 mm 0,0 UV-I 0 W/m 9,8 C 15,5 C 0,0 km/h (0 Bft) 0,00 %
30.07.2015 21:04 15,4 C 69 % 1015,3 hPa 0,0 l/m 0,0 km/h (0 Bft) W-SW 251 0 min 0,000 mm 0,0 UV-I 0 W/m 9,7 C 15,4 C 0,0 km/h (0 Bft) 0,00 %
30.07.2015 21:09 15,4 C 69 % 1015,3 hPa 0,0 l/m 0,0 km/h (0 Bft) W-SW 251 0 min 0,000 mm 0,0 UV-I 0 W/m 9,7 C 15,4 C 0,0 km/h (0 Bft) 0,00 %
30.07.2015 21:14 15,3 C 70 % 1015,5 hPa 0,0 l/m 0,0 km/h (0 Bft) W-SW 251 0 min 0,000 mm 0,0 UV-I 0 W/m 9,9 C 15,3 C 0,0 km/h (0 Bft) 0,00 %
30.07.2015 21:19 15,3 C 69 % 1015,7 hPa 0,0 l/m 0,0 km/h (0 Bft) W-SW 251 0 min 0,000 mm 0,0 UV-I 0 W/m 9,6 C 15,3 C 0,0 km/h (0 Bft) 0,00 %
30.07.2015 21:24 15,3 C 70 % 1015,6 hPa 0,0 l/m 0,0 km/h (0 Bft) W-SW 251 0 min 0,000 mm 0,0 UV-I 0 W/m 9,9 C 15,3 C 0,0 km/h (0 Bft) 0,00 %
30.07.2015 21:29 15,3 C 69 % 1015,7 hPa 0,0 l/m 0,0 km/h (0 Bft) NO 40 0 min 0,000 mm 0,0 UV-I 0 W/m 9,6 C 15,3 C 0,0 km/h (0 Bft) 0,00 %
30.07.2015 21:34 15,3 C 68 % 1015,5 hPa 0,0 l/m 0,0 km/h (0 Bft) NO 48 0 min 0,000 mm 0,0 UV-I 0 W/m 9,4 C 15,3 C 0,0 km/h (0 Bft) 0,00 %
30.07.2015 21:39 15,4 C 69 % 1015,7 hPa 0,0 l/m 0,0 km/h (0 Bft) NO 42 0 min 0,000 mm 0,0 UV-I 0 W/m 9,7 C 15,4 C 0,0 km/h (0 Bft) 0,00 %
30.07.2015 21:44 15,5 C 71 % 1015,6 hPa 0,0 l/m 0,0 km/h (0 Bft) NO 44 0 min 0,000 mm 0,0 UV-I 0 W/m 10,3 C 15,5 C 0,0 km/h (0 Bft) 0,00 %
30.07.2015 21:49 15,5 C 71 % 1015,8 hPa 0,0 l/m 0,0 km/h (0 Bft) NO 42 0 min 0,000 mm 0,0 UV-I 0 W/m 10,3 C 15,5 C 0,0 km/h (0 Bft) 0,00 %
30.07.2015 21:54 15,5 C 71 % 1015,9 hPa 0,0 l/m 0,0 km/h (0 Bft) NO 43 0 min 0,000 mm 0,0 UV-I 0 W/m 10,3 C 15,5 C 0,0 km/h (0 Bft) 0,00 %
30.07.2015 21:59 15,5 C 71 % 1015,7 hPa 0,0 l/m 0,0 km/h (0 Bft) NO 43 0 min 0,000 mm 0,0 UV-I 0 W/m 10,3 C 15,5 C 0,0 km/h (0 Bft) 0,00 %
30.07.2015 22:04 15,5 C 70 % 1015,9 hPa 0,0 l/m 0,0 km/h (0 Bft) NO 44 0 min 0,000 mm 0,0 UV-I 0 W/m 10,1 C 15,5 C 0,0 km/h (0 Bft) 0,00 %
30.07.2015 22:09 15,5 C 71 % 1016,1 hPa 0,0 l/m 0,0 km/h (0 Bft) NO 44 0 min 0,000 mm 0,0 UV-I 0 W/m 10,3 C 15,5 C 0,0 km/h (0 Bft) 0,00 %
30.07.2015 22:14 15,5 C 73 % 1015,9 hPa 0,0 l/m 0,0 km/h (0 Bft) NO 43 0 min 0,000 mm 0,0 UV-I 0 W/m 10,7 C 15,5 C 0,0 km/h (0 Bft) 0,00 %
30.07.2015 22:19 15,5 C 72 % 1016,1 hPa 0,0 l/m 0,0 km/h (0 Bft) NO 42 0 min 0,000 mm 0,0 UV-I 0 W/m 10,5 C 15,5 C 0,0 km/h (0 Bft) 0,00 %
30.07.2015 22:24 15,5 C 72 % 1016,0 hPa 0,0 l/m 0,0 km/h (0 Bft) NO 41 0 min 0,000 mm 0,0 UV-I 0 W/m 10,5 C 15,5 C 0,0 km/h (0 Bft) 0,00 %
30.07.2015 22:29 15,5 C 70 % 1016,1 hPa 0,0 l/m 0,0 km/h (0 Bft) NO 37 0 min 0,000 mm 0,0 UV-I 0 W/m 10,1 C 15,5 C 0,0 km/h (0 Bft) 0,00 %
30.07.2015 22:34 15,6 C 70 % 1016,1 hPa 0,0 l/m 0,0 km/h (0 Bft) NO 45 0 min 0,000 mm 0,0 UV-I 0 W/m 10,1 C 15,6 C 0,0 km/h (0 Bft) 0,00 %
30.07.2015 22:39 15,7 C 69 % 1016,2 hPa 0,0 l/m 0,0 km/h (0 Bft) NO 44 0 min 0,000 mm 0,0 UV-I 0 W/m 10,0 C 15,7 C 0,0 km/h (0 Bft) 0,00 %
30.07.2015 22:44 15,7 C 69 % 1016,4 hPa 0,0 l/m 0,0 km/h (0 Bft) NO 43 0 min 0,000 mm 0,0 UV-I 0 W/m 10,0 C 15,7 C 0,0 km/h (0 Bft) 0,00 %
30.07.2015 22:49 15,8 C 69 % 1016,2 hPa 0,0 l/m 0,0 km/h (0 Bft) NO 43 0 min 0,000 mm 0,0 UV-I 0 W/m 10,1 C 15,8 C 0,0 km/h (0 Bft) 0,00 %
30.07.2015 22:54 15,8 C 70 % 1016,2 hPa 0,0 l/m 0,0 km/h (0 Bft) NO 45 0 min 0,000 mm 0,0 UV-I 0 W/m 10,3 C 15,8 C 0,0 km/h (0 Bft) 0,00 %
30.07.2015 22:59 15,8 C 70 % 1016,2 hPa 0,0 l/m 0,0 km/h (0 Bft) NO 45 0 min 0,000 mm 0,0 UV-I 0 W/m 10,3 C 15,8 C 0,0 km/h (0 Bft) 0,00 %
30.07.2015 23:05 15,7 C 74 % 1016,1 hPa 0,0 l/m 0,0 km/h (0 Bft) N-NO 27 0 min 0,000 mm 0,0 UV-I 0 W/m 11,1 C 15,7 C 0,0 km/h (0 Bft) 0,00 %
30.07.2015 23:10 15,6 C 73 % 1016,0 hPa 0,0 l/m 0,0 km/h (0 Bft) N-NO 27 0 min 0,000 mm 0,0 UV-I 0 W/m 10,8 C 15,6 C 0,0 km/h (0 Bft) 0,00 %
30.07.2015 23:15 15,5 C 74 % 1016,2 hPa 0,0 l/m 0,0 km/h (0 Bft) NO 50 0 min 0,000 mm 0,0 UV-I 0 W/m 10,9 C 15,5 C 0,0 km/h (0 Bft) 0,00 %
30.07.2015 23:20 15,4 C 72 % 1016,1 hPa 0,0 l/m 0,0 km/h (0 Bft) NO 53 0 min 0,000 mm 0,0 UV-I 0 W/m 10,4 C 15,4 C 0,0 km/h (0 Bft) 0,00 %
30.07.2015 23:25 15,3 C 72 % 1016,1 hPa 0,0 l/m 0,0 km/h (0 Bft) NO 48 0 min 0,000 mm 0,0 UV-I 0 W/m 10,3 C 15,3 C 0,0 km/h (0 Bft) 0,00 %
30.07.2015 23:30 15,2 C 72 % 1016,1 hPa 0,0 l/m 0,0 km/h (0 Bft) NO 45 0 min 0,000 mm 0,0 UV-I 0 W/m 10,2 C 15,2 C 0,0 km/h (0 Bft) 0,00 %
30.07.2015 23:35 15,2 C 72 % 1016,0 hPa 0,0 l/m 0,0 km/h (0 Bft) NO 45 0 min 0,000 mm 0,0 UV-I 0 W/m 10,2 C 15,2 C 0,0 km/h (0 Bft) 0,00 %
30.07.2015 23:40 15,2 C 72 % 1015,9 hPa 0,0 l/m 0,0 km/h (0 Bft) NO 43 0 min 0,000 mm 0,0 UV-I 0 W/m 10,2 C 15,2 C 0,0 km/h (0 Bft) 0,00 %
30.07.2015 23:45 15,1 C 72 % 1016,1 hPa 0,0 l/m 0,0 km/h (0 Bft) NO 49 0 min 0,000 mm 0,0 UV-I 0 W/m 10,1 C 15,1 C 0,0 km/h (0 Bft) 0,00 %
30.07.2015 23:50 15,1 C 73 % 1016,1 hPa 0,0 l/m 0,0 km/h (0 Bft) NO 50 0 min 0,000 mm 0,0 UV-I 0 W/m 10,3 C 15,1 C 0,0 km/h (0 Bft) 0,00 %
30.07.2015 23:55 15,0 C 73 % 1016,0 hPa 0,0 l/m 0,0 km/h (0 Bft) NO 38 0 min 0,000 mm 0,0 UV-I 0 W/m 10,2 C 15,0 C 0,0 km/h (0 Bft) 0,00 %
_ Min-Zeit 05:43 17:39 00:03 - 00:08 - - - - - - 17:39 05:43 00:08 00:03
Minimum _ 11,8 C 38 % 1013,9 hPa - 0,0 km/h (0 Bft) - - - - - - 6,7 C 11,8 C 0,0 km/h (0 Bft) 0,00 %
_ Max-Zeit 17:09 05:38 22:44 00:03 03:08 - - 07:34 00:03 13:09 14:24 01:03 17:09 01:38 00:03
Maximum _ 22,2 C 97 % 1016,4 hPa 0,0 l/m 5,8 km/h
W-SW (2 Bft)
- - 5 min 0,000 mm 5,0 UV-I 1055 W/m 13,6 C 22,2 C 7,9 km/h
W-NW (2 Bft)
0,00 %
Durchschnitt _ 17,1 C 67 % 1015,2 hPa #0,0 l/m 0,6 km/h (0 Bft) W-NW - #8:05 h #0,000 mm 1,8 UV-I 364 W/m 10,2 C 17,1 C 1,3 km/h (1 Bft) 0,00 %